TimePDT,TemperatureF,Dew PointF,Humidity,Sea Level PressureIn,VisibilityMPH,Wind Direction,Wind SpeedMPH,Gust SpeedMPH,PrecipitationIn,Events,Conditions,WindDirDegrees,DateUTC
12:53 AM,48.9,48.0,97,30.06,9.0,Calm,Calm,-,N/A,,Clear,0,2013-07-23 07:53:00
1:53 AM,50.0,48.9,96,30.06,8.0,Calm,Calm,-,N/A,,Clear,0,2013-07-23 08:53:00
2:08 AM,50.0,48.2,94,30.06,8.0,Calm,Calm,-,N/A,,Partly Cloudy,0,2013-07-23 09:08:00
2:53 AM,50.0,48.9,96,30.06,7.0,Calm,Calm,-,N/A,,Clear,0,2013-07-23 09:53:00
3:53 AM,50.0,48.0,93,30.06,6.0,Calm,Calm,-,N/A,,Clear,0,2013-07-23 10:53:00
4:03 AM,48.2,48.2,100,30.06,6.0,Calm,Calm,-,N/A,,Scattered Clouds,0,2013-07-23 11:03:00
4:31 AM,48.2,46.4,93,30.07,5.0,Calm,Calm,-,N/A,,Mostly Cloudy,0,2013-07-23 11:31:00
4:53 AM,48.0,46.9,96,30.07,5.0,Calm,Calm,-,N/A,,Mostly Cloudy,0,2013-07-23 11:53:00
5:13 AM,46.4,46.4,100,30.07,6.0,Calm,Calm,-,N/A,,Scattered Clouds,0,2013-07-23 12:13:00
5:22 AM,46.4,44.6,93,30.07,5.0,Calm,Calm,-,N/A,,Mostly Cloudy,0,2013-07-23 12:22:00
5:33 AM,46.4,46.4,100,30.07,1.8,Calm,Calm,-,N/A,,Mostly Cloudy,0,2013-07-23 12:33:00
5:53 AM,50.0,48.9,96,30.08,0.2,NNE,3.5,-,N/A,Fog,Fog,20,2013-07-23 12:53:00
6:53 AM,51.1,51.1,100,30.09,0.8,Calm,Calm,-,N/A,,Overcast,0,2013-07-23 13:53:00
7:01 AM,51.8,51.8,100,30.08,1.5,Calm,Calm,-,N/A,,Mostly Cloudy,0,2013-07-23 14:01:00
7:28 AM,51.8,51.8,100,30.09,0.8,Calm,Calm,-,N/A,,Overcast,0,2013-07-23 14:28:00
7:35 AM,51.8,51.8,100,30.09,2.0,Calm,Calm,-,N/A,,Overcast,0,2013-07-23 14:35:00
7:43 AM,53.6,51.8,94,30.09,8.0,Calm,Calm,-,N/A,,Mostly Cloudy,0,2013-07-23 14:43:00
7:53 AM,54.0,53.1,97,30.09,10.0,Calm,Calm,-,N/A,,Scattered Clouds,0,2013-07-23 14:53:00
8:53 AM,57.9,52.0,81,30.09,10.0,ESE,3.5,-,N/A,,Clear,120,2013-07-23 15:53:00
9:53 AM,59.0,52.0,78,30.09,10.0,ESE,3.5,-,N/A,,Clear,120,2013-07-23 16:53:00
10:53 AM,61.0,52.0,72,30.08,10.0,ESE,4.6,-,N/A,,Clear,110,2013-07-23 17:53:00
11:53 AM,64.0,53.1,67,30.07,10.0,Calm,Calm,-,N/A,,Clear,0,2013-07-23 18:53:00
12:53 PM,68.0,55.0,63,30.06,10.0,Calm,Calm,-,N/A,,Clear,0,2013-07-23 19:53:00
1:53 PM,70.0,55.0,59,30.06,10.0,Calm,Calm,-,N/A,,Clear,0,2013-07-23 20:53:00
2:53 PM,75.0,57.0,53,30.04,10.0,Variable,5.8,-,N/A,,Clear,0,2013-07-23 21:53:00
3:53 PM,73.0,55.0,53,30.02,10.0,SW,8.1,-,N/A,,Clear,230,2013-07-23 22:53:00
4:53 PM,73.9,52.0,46,30.02,10.0,SW,9.2,-,N/A,,Clear,220,2013-07-23 23:53:00
5:53 PM,73.0,48.0,41,30.01,10.0,SW,9.2,-,N/A,,Clear,230,2013-07-24 00:53:00
6:53 PM,66.9,51.1,57,30.00,10.0,SSW,6.9,-,N/A,,Clear,210,2013-07-24 01:53:00
7:53 PM,59.0,51.1,75,30.00,10.0,Calm,Calm,-,N/A,,Clear,0,2013-07-24 02:53:00
8:53 PM,55.0,50.0,83,30.00,10.0,Calm,Calm,-,N/A,,Clear,0,2013-07-24 03:53:00
9:53 PM,53.1,50.0,89,30.01,10.0,Calm,Calm,-,N/A,,Clear,0,2013-07-24 04:53:00
10:53 PM,52.0,48.9,89,30.01,10.0,Calm,Calm,-,N/A,,Clear,0,2013-07-24 05:53:00
11:53 PM,52.0,48.9,89,30.02,10.0,Calm,Calm,-,N/A,,Clear,0,2013-07-24 06:53:00